| time (UTC) | temp F | wind direction | speed knots | gust knots | rain 1hr in | rain 24hr in | rain mn in | humidity % | barometer mb |
| 20260505124559 | 62 | 319 | 1.7 | 5.2 | 0.00 | 0.00 | 0.00 | 79 | 1011.4 |
| 20260505124052 | 62 | 58 | 1.7 | 8.7 | 0.00 | 0.00 | 0.00 | 79 | 1011.3 |
| 20260505123555 | 62 | 24 | 2.6 | 8.7 | 0.00 | 0.00 | 0.00 | 79 | 1011.3 |
| 20260505123059 | 62 | 353 | 2.6 | 7.0 | 0.00 | 0.00 | 0.00 | 79 | 1011.2 |
| 20260505122552 | 62 | 329 | 1.7 | 7.0 | 0.00 | 0.00 | 0.00 | 79 | 1011.2 |
| 20260505122053 | 62 | 61 | 1.7 | 5.2 | 0.00 | 0.00 | 0.00 | 79 | 1011.1 |
| 20260505121620 | 62 | 38 | 2.6 | 6.1 | 0.00 | 0.00 | 0.00 | 79 | 1011.1 |
| 20260505121052 | 62 | 65 | 1.7 | 6.1 | 0.00 | 0.00 | 0.00 | 79 | 1011.1 |
| 20260505120551 | 62 | 75 | 1.7 | 6.1 | 0.00 | 0.00 | 0.00 | 79 | 1011.0 |
| 20260505120053 | 62 | 77 | 1.7 | 5.2 | 0.00 | 0.00 | 0.00 | 79 | 1010.9 |
| 20260505115551 | 62 | 23 | 1.7 | 5.2 | 0.00 | 0.00 | 0.00 | 78 | 1010.9 |
| 20260505115048 | 62 | 354 | 0.9 | 3.5 | 0.00 | 0.00 | 0.00 | 78 | 1010.9 |
| 20260505114557 | 62 | 13 | 1.7 | 4.3 | 0.00 | 0.00 | 0.00 | 78 | 1010.8 |
| 20260505114049 | 62 | 259 | 1.7 | 4.3 | 0.00 | 0.00 | 0.00 | 78 | 1010.8 |
| 20260505113550 | 62 | 60 | 1.7 | 4.3 | 0.00 | 0.00 | 0.00 | 78 | 1010.8 |
| 20260505113057 | 62 | 84 | 1.7 | 3.5 | 0.00 | 0.00 | 0.00 | 78 | 1010.5 |
| 20260505112549 | 62 | 20 | 0.9 | 4.3 | 0.00 | 0.00 | 0.00 | 77 | 1010.3 |
| 20260505112048 | 62 | 345 | 0.9 | 4.3 | 0.00 | 0.00 | 0.00 | 77 | 1010.2 |
| 20260505111556 | 62 | 68 | 1.7 | 4.3 | 0.00 | 0.00 | 0.00 | 77 | 1010.0 |
| 20260505111055 | 62 | 49 | 1.7 | 4.3 | 0.00 | 0.00 | 0.00 | 77 | 1009.9 |
| 20260505110554 | 62 | 48 | 1.7 | 4.3 | 0.00 | 0.00 | 0.00 | 77 | 1010.1 |
| 20260505102048 | 62 | 31 | 1.7 | 4.3 | 0.00 | 0.00 | 0.00 | 75 | 1009.8 |
| 20260505101557 | 63 | 53 | 0.9 | 2.6 | 0.00 | 0.00 | 0.00 | 75 | 1009.6 |
| 20260505101051 | 63 | 32 | 0.0 | 3.5 | 0.00 | 0.00 | 0.00 | 75 | 1009.8 |
| 20260505100621 | 63 | 0 | 0.9 | 5.2 | 0.00 | 0.00 | 0.00 | 74 | 1009.8 |
| 20260505100128 | 63 | 63 | 0.9 | 5.2 | 0.00 | 0.00 | 0.00 | 74 | 1009.7 |
| 20260505095551 | 63 | 75 | 1.7 | 6.1 | 0.00 | 0.00 | 0.00 | 74 | 1009.5 |
| 20260505095050 | 63 | 107 | 1.7 | 7.0 | 0.00 | 0.00 | 0.00 | 74 | 1009.4 |
| 20260505094551 | 63 | 307 | 0.9 | 7.0 | 0.00 | 0.00 | 0.00 | 74 | 1009.4 |
| 20260505094052 | 63 | 51 | 0.9 | 5.2 | 0.00 | 0.00 | 0.00 | 73 | 1009.3 |
| 20260505093552 | 63 | 22 | 0.9 | 6.1 | 0.00 | 0.00 | 0.00 | 73 | 1009.5 |
| 20260505093053 | 63 | 8 | 1.7 | 6.1 | 0.00 | 0.00 | 0.00 | 73 | 1009.4 |
| 20260505092554 | 63 | 61 | 2.6 | 6.1 | 0.00 | 0.00 | 0.00 | 73 | 1009.4 |
| 20260505092053 | 63 | 67 | 1.7 | 6.1 | 0.00 | 0.00 | 0.00 | 73 | 1009.2 |
| 20260505091616 | 63 | 51 | 2.6 | 6.1 | 0.00 | 0.00 | 0.00 | 72 | 1009.1 |
| 20260505091052 | 63 | 38 | 1.7 | 8.7 | 0.00 | 0.00 | 0.00 | 72 | 1009.0 |
| 20260505090551 | 63 | 84 | 3.5 | 8.7 | 0.00 | 0.00 | 0.00 | 72 | 1009.0 |
| 20260505090100 | 63 | 89 | 1.7 | 8.7 | 0.00 | 0.00 | 0.00 | 72 | 1009.1 |
| 20260505085551 | 63 | 33 | 2.6 | 8.7 | 0.00 | 0.00 | 0.00 | 72 | 1009.2 |
| 20260505085049 | 63 | 41 | 2.6 | 8.7 | 0.00 | 0.00 | 0.00 | 72 | 1009.1 |
| 20260505084550 | 63 | 89 | 1.7 | 7.0 | 0.00 | 0.00 | 0.00 | 72 | 1009.1 |
| 20260505084050 | 63 | 34 | 2.6 | 7.0 | 0.00 | 0.00 | 0.00 | 72 | 1009.2 |
| 20260505083551 | 63 | 24 | 1.7 | 6.1 | 0.00 | 0.00 | 0.00 | 72 | 1009.3 |
| 20260505083054 | 63 | 83 | 2.6 | 6.1 | 0.00 | 0.00 | 0.00 | 72 | 1009.3 |
| 20260505082551 | 63 | 39 | 1.7 | 6.1 | 0.00 | 0.00 | 0.00 | 72 | 1009.3 |
| 20260505082050 | 63 | 288 | 2.6 | 5.2 | 0.00 | 0.00 | 0.00 | 72 | 1009.4 |
| 20260505081557 | 63 | 68 | 1.7 | 5.2 | 0.00 | 0.00 | 0.00 | 72 | 1009.5 |
| 20260505081052 | 63 | 17 | 1.7 | 5.2 | 0.00 | 0.00 | 0.00 | 72 | 1009.4 |
| 20260505080550 | 62 | 85 | 0.9 | 4.3 | 0.00 | 0.00 | 0.00 | 73 | 1009.5 |
| 20260505080054 | 62 | 44 | 1.7 | 4.3 | 0.00 | 0.00 | 0.00 | 73 | 1009.6 |
| 20260505075548 | 62 | 62 | 1.7 | 4.3 | 0.00 | 0.00 | 0.00 | 73 | 1009.5 |
| 20260505075053 | 62 | 34 | 1.7 | 4.3 | 0.00 | 0.00 | 0.00 | 73 | 1009.6 |
| 20260505074553 | 62 | 306 | 1.7 | 4.3 | 0.00 | 0.00 | 0.00 | 72 | 1009.6 |
| 20260505074054 | 62 | 94 | 1.7 | 4.3 | 0.00 | 0.00 | 0.00 | 72 | 1009.5 |
| 20260505073547 | 62 | 4 | 0.9 | 6.1 | 0.00 | 0.00 | 0.00 | 72 | 1009.7 |
| 20260505073100 | 62 | 56 | 0.9 | 6.1 | 0.00 | 0.00 | 0.00 | 72 | 1009.8 |
| 20260505072551 | 62 | 63 | 0.9 | 4.3 | 0.00 | 0.00 | 0.00 | 72 | 1010.0 |
| 20260505072054 | 63 | 26 | 1.7 | 4.3 | 0.00 | 0.00 | 0.00 | 72 | 1010.0 |
| 20260505071552 | 63 | 55 | 0.9 | 3.5 | 0.00 | 0.00 | 0.00 | 72 | 1010.3 |
| 20260505071052 | 63 | 78 | 0.9 | 3.5 | 0.00 | 0.00 | 0.00 | 72 | 1010.5 |
| 20260505070549 | 63 | 34 | 0.9 | 4.3 | 0.00 | 0.00 | 0.00 | 71 | 1010.6 |
| 20260505070057 | 63 | 21 | 0.9 | 4.3 | 0.00 | 0.00 | 0.00 | 71 | 1010.7 |
| 20260505065552 | 63 | 49 | 0.9 | 3.5 | 0.00 | 0.00 | 0.00 | 71 | 1010.7 |
| 20260505065052 | 63 | 15 | 0.9 | 3.5 | 0.00 | 0.00 | 0.00 | 71 | 1011.0 |
| 20260505064602 | 63 | 77 | 0.0 | 2.6 | 0.00 | 0.00 | 0.00 | 70 | 1011.0 |
| 20260505064048 | 63 | 48 | 0.9 | 2.6 | 0.00 | 0.00 | 0.00 | 70 | 1011.1 |
| 20260505063549 | 64 | 63 | 0.9 | 3.5 | 0.00 | 0.00 | 0.00 | 69 | 1011.1 |
| 20260505063101 | 64 | 35 | 0.9 | 5.2 | 0.00 | 0.00 | 0.00 | 69 | 1011.1 |
| 20260505062551 | 64 | 54 | 1.7 | 5.2 | 0.00 | 0.00 | 0.00 | 68 | 1011.2 |
| 20260505062051 | 64 | 12 | 0.9 | 3.5 | 0.00 | 0.00 | 0.00 | 68 | 1011.2 |
| 20260505061552 | 65 | 62 | 0.9 | 2.6 | 0.00 | 0.00 | 0.00 | 67 | 1011.1 |
| 20260505061051 | 65 | 337 | 0.9 | 3.5 | 0.00 | 0.00 | 0.00 | 67 | 1011.3 |
| 20260505060554 | 65 | 84 | 0.9 | 3.5 | 0.00 | 0.00 | 0.00 | 67 | 1011.3 |
| 20260505060059 | 65 | 65 | 1.7 | 3.5 | 0.00 | 0.00 | 0.00 | 66 | 1011.3 |
| 20260505055549 | 65 | 42 | 1.7 | 3.5 | 0.00 | 0.00 | 0.00 | 66 | 1011.2 |
| 20260505055049 | 65 | 52 | 0.9 | 3.5 | 0.00 | 0.00 | 0.00 | 66 | 1011.2 |
| 20260505054620 | 66 | 56 | 0.9 | 4.3 | 0.00 | 0.00 | 0.00 | 65 | 1011.1 |
| 20260505054054 | 66 | 25 | 0.9 | 4.3 | 0.00 | 0.00 | 0.00 | 65 | 1011.2 |
| 20260505053548 | 66 | 77 | 1.7 | 4.3 | 0.00 | 0.00 | 0.00 | 65 | 1011.1 |
| 20260505053100 | 66 | 18 | 1.7 | 4.3 | 0.00 | 0.00 | 0.00 | 65 | 1011.0 |
| 20260505052552 | 66 | 5 | 0.9 | 4.3 | 0.00 | 0.00 | 0.00 | 65 | 1011.2 |
| 20260505052051 | 66 | 9 | 1.7 | 4.3 | 0.00 | 0.00 | 0.00 | 65 | 1011.2 |
| 20260505051555 | 66 | 74 | 0.9 | 4.3 | 0.00 | 0.00 | 0.00 | 65 | 1011.2 |
| 20260505051053 | 66 | 72 | 1.7 | 6.1 | 0.00 | 0.00 | 0.00 | 65 | 1011.2 |
| 20260505050552 | 66 | 53 | 0.9 | 6.1 | 0.00 | 0.00 | 0.00 | 65 | 1011.2 |
| 20260505041605 | 67 | 84 | 0.9 | 5.2 | 0.00 | 0.00 | 0.00 | 63 | 1011.4 |
| 20260505041051 | 67 | 48 | 0.0 | 5.2 | 0.00 | 0.00 | 0.00 | 62 | 1011.3 |
| 20260505040551 | 67 | 304 | 1.7 | 5.2 | 0.00 | 0.00 | 0.00 | 62 | 1011.3 |
| 20260505040052 | 67 | 57 | 1.7 | 5.2 | 0.00 | 0.00 | 0.00 | 62 | 1011.3 |
| 20260505035551 | 68 | 58 | 1.7 | 5.2 | 0.00 | 0.00 | 0.00 | 62 | 1011.2 |
| 20260505035053 | 68 | 122 | 2.6 | 6.1 | 0.00 | 0.00 | 0.00 | 62 | 1011.1 |
| 20260505034553 | 68 | 75 | 1.7 | 6.1 | 0.00 | 0.00 | 0.00 | 61 | 1011.2 |
| 20260505034051 | 68 | 59 | 2.6 | 6.1 | 0.00 | 0.00 | 0.00 | 61 | 1011.2 |
| 20260505033552 | 68 | 20 | 1.7 | 4.3 | 0.00 | 0.00 | 0.00 | 61 | 1011.1 |
| 20260505033053 | 68 | 310 | 0.9 | 6.1 | 0.00 | 0.00 | 0.00 | 61 | 1011.1 |
| 20260505032552 | 68 | 44 | 0.9 | 6.1 | 0.00 | 0.00 | 0.00 | 61 | 1011.1 |
| 20260505032052 | 68 | 60 | 1.7 | 6.1 | 0.00 | 0.00 | 0.00 | 60 | 1011.0 |
| 20260505031553 | 68 | 75 | 1.7 | 4.3 | 0.00 | 0.00 | 0.00 | 60 | 1011.0 |
| 20260505031052 | 68 | 67 | 1.7 | 5.2 | 0.00 | 0.00 | 0.00 | 60 | 1011.0 |
| 20260505030551 | 68 | 271 | 1.7 | 5.2 | 0.00 | 0.00 | 0.00 | 59 | 1011.0 |
| 20260505030103 | 69 | 96 | 1.7 | 4.3 | 0.00 | 0.00 | 0.00 | 59 | 1011.0 |
| 20260505025553 | 69 | 57 | 1.7 | 6.1 | 0.00 | 0.00 | 0.00 | 59 | 1011.1 |
| 20260505025052 | 69 | 269 | 1.7 | 6.1 | 0.00 | 0.00 | 0.00 | 58 | 1010.9 |
| 20260505024601 | 69 | 37 | 1.7 | 6.1 | 0.00 | 0.00 | 0.00 | 58 | 1010.9 |
| 20260505024051 | 69 | 345 | 2.6 | 5.2 | 0.00 | 0.00 | 0.00 | 58 | 1010.8 |
| 20260505023552 | 69 | 49 | 1.7 | 5.2 | 0.00 | 0.00 | 0.00 | 58 | 1010.9 |
| 20260505023104 | 69 | 68 | 2.6 | 5.2 | 0.00 | 0.00 | 0.00 | 58 | 1010.8 |
| 20260505022551 | 69 | 347 | 1.7 | 5.2 | 0.00 | 0.00 | 0.00 | 57 | 1010.9 |
| 20260505022051 | 69 | 24 | 1.7 | 5.2 | 0.00 | 0.00 | 0.00 | 57 | 1010.7 |
| 20260505021556 | 69 | 326 | 1.7 | 5.2 | 0.00 | 0.00 | 0.00 | 57 | 1010.6 |
| 20260505021050 | 70 | 7 | 1.7 | 3.5 | 0.00 | 0.00 | 0.00 | 56 | 1010.5 |
| 20260505020550 | 70 | 52 | 0.9 | 3.5 | 0.00 | 0.00 | 0.00 | 56 | 1010.6 |
| 20260505015552 | 70 | 51 | 0.9 | 4.3 | 0.00 | 0.00 | 0.00 | 55 | 1010.4 |
| 20260505015053 | 70 | 44 | 1.7 | 5.2 | 0.00 | 0.00 | 0.00 | 55 | 1010.3 |
| 20260505014552 | 71 | 11 | 0.9 | 6.1 | 0.00 | 0.00 | 0.00 | 55 | 1010.3 |
| 20260505014055 | 71 | 21 | 1.7 | 6.1 | 0.00 | 0.00 | 0.00 | 54 | 1010.3 |
| 20260505013552 | 71 | 99 | 2.6 | 6.1 | 0.00 | 0.00 | 0.00 | 54 | 1010.3 |
| 20260505013053 | 71 | 88 | 0.9 | 4.3 | 0.00 | 0.00 | 0.00 | 54 | 1010.4 |
| 20260505012551 | 71 | 89 | 0.9 | 4.3 | 0.00 | 0.00 | 0.00 | 53 | 1010.3 |
| 20260505012051 | 72 | 36 | 1.7 | 4.3 | 0.00 | 0.00 | 0.00 | 53 | 1010.3 |
| 20260505011554 | 72 | 48 | 0.9 | 5.2 | 0.00 | 0.00 | 0.00 | 52 | 1010.4 |
| 20260505011050 | 72 | 46 | 1.7 | 5.2 | 0.00 | 0.00 | 0.00 | 52 | 1010.3 |
| 20260505010553 | 73 | 21 | 1.7 | 7.8 | 0.00 | 0.00 | 0.00 | 51 | 1010.3 |
| 20260505010106 | 73 | 67 | 1.7 | 8.7 | 0.00 | 0.00 | 0.00 | 51 | 1010.2 |
| 20260505005551 | 73 | 150 | 1.7 | 8.7 | 0.00 | 0.00 | 0.00 | 50 | 1010.3 |
| 20260505005051 | 73 | 75 | 3.5 | 8.7 | 0.00 | 0.00 | 0.00 | 50 | 1010.2 |
| 20260505004553 | 74 | 38 | 2.6 | 7.8 | 0.00 | 0.00 | 0.00 | 50 | 1010.1 |
| 20260505004050 | 74 | 330 | 3.5 | 7.8 | 0.00 | 0.00 | 0.00 | 49 | 1010.1 |
| 20260505003550 | 74 | 41 | 3.5 | 9.6 | 0.00 | 0.00 | 0.00 | 49 | 1010.2 |
| 20260505003053 | 74 | 291 | 2.6 | 9.6 | 0.00 | 0.00 | 0.00 | 49 | 1010.2 |
| 20260505002551 | 75 | 84 | 1.7 | 9.6 | 0.00 | 0.00 | 0.00 | 49 | 1010.1 |
| 20260505002051 | 75 | 144 | 3.5 | 9.6 | 0.00 | 0.00 | 0.00 | 48 | 1010.1 |
| 20260505001556 | 75 | 49 | 3.5 | 9.6 | 0.00 | 0.00 | 0.00 | 48 | 1010.1 |
| 20260505001054 | 76 | 359 | 2.6 | 9.6 | 0.00 | 0.00 | 0.00 | 47 | 1010.2 |
| 20260505000551 | 76 | 70 | 2.6 | 10.4 | 0.00 | 0.00 | 0.00 | 46 | 1010.2 |
| 20260504235554 | 77 | 146 | 4.3 | 10.4 | 0.00 | 0.00 | 0.00 | 45 | 1010.2 |
| 20260504235051 | 78 | 55 | 2.6 | 9.6 | 0.00 | 0.00 | 0.00 | 44 | 1010.3 |
| 20260504234554 | 78 | 99 | 3.5 | 9.6 | 0.00 | 0.00 | 0.00 | 44 | 1010.2 |
| 20260504234051 | 79 | 48 | 2.6 | 10.4 | 0.00 | 0.00 | 0.00 | 43 | 1010.3 |
| 20260504233553 | 79 | 307 | 3.5 | 13.0 | 0.00 | 0.00 | 0.00 | 42 | 1010.2 |
| 20260504233055 | 79 | 123 | 4.3 | 13.0 | 0.00 | 0.00 | 0.00 | 42 | 1010.4 |
| 20260504232553 | 80 | 117 | 5.2 | 11.3 | 0.00 | 0.00 | 0.00 | 42 | 1010.3 |
| 20260504232051 | 80 | 328 | 3.5 | 10.4 | 0.00 | 0.00 | 0.00 | 42 | 1010.3 |
| 20260504231557 | 80 | 60 | 2.6 | 13.0 | 0.00 | 0.00 | 0.00 | 42 | 1010.3 |
| 20260504231051 | 80 | 21 | 4.3 | 13.0 | 0.00 | 0.00 | 0.00 | 42 | 1010.2 |
| 20260504230555 | 80 | 81 | 3.5 | 10.4 | 0.00 | 0.00 | 0.00 | 42 | 1010.3 |
| 20260504230111 | 80 | 280 | 4.3 | 10.4 | 0.00 | 0.00 | 0.00 | 40 | 1010.4 |
| 20260504225553 | 81 | 39 | 3.5 | 9.6 | 0.00 | 0.00 | 0.00 | 40 | 1010.3 |
| 20260504225054 | 81 | 91 | 2.6 | 9.6 | 0.00 | 0.00 | 0.00 | 42 | 1010.3 |
| 20260504224612 | 81 | 328 | 3.5 | 11.3 | 0.00 | 0.00 | 0.00 | 40 | 1010.5 |
| 20260504224052 | 81 | 285 | 2.6 | 11.3 | 0.00 | 0.00 | 0.00 | 40 | 1010.5 |
| 20260504223551 | 81 | 46 | 4.3 | 10.4 | 0.00 | 0.00 | 0.00 | 39 | 1010.4 |
| 20260504223103 | 81 | 28 | 5.2 | 12.2 | 0.00 | 0.00 | 0.00 | 39 | 1010.4 |
| 20260504222550 | 81 | 282 | 4.3 | 13.9 | 0.00 | 0.00 | 0.00 | 39 | 1010.5 |
| 20260504222050 | 81 | 316 | 5.2 | 13.9 | 0.00 | 0.00 | 0.00 | 40 | 1010.5 |
| 20260504221555 | 81 | 37 | 4.3 | 14.8 | 0.00 | 0.00 | 0.00 | 40 | 1010.5 |
| 20260504221050 | 81 | 323 | 6.1 | 14.8 | 0.00 | 0.00 | 0.00 | 40 | 1010.6 |
| 20260504220552 | 81 | 69 | 5.2 | 14.8 | 0.00 | 0.00 | 0.00 | 39 | 1010.4 |
| 20260504220059 | 81 | 26 | 4.3 | 13.0 | 0.00 | 0.00 | 0.00 | 40 | 1010.5 |
| 20260504215553 | 81 | 10 | 5.2 | 13.0 | 0.00 | 0.00 | 0.00 | 39 | 1010.6 |
| 20260504215054 | 82 | 68 | 4.3 | 13.0 | 0.00 | 0.00 | 0.00 | 40 | 1010.4 |
| 20260504214557 | 82 | 9 | 3.5 | 11.3 | 0.00 | 0.00 | 0.00 | 40 | 1010.6 |
| 20260504214053 | 82 | 77 | 4.3 | 11.3 | 0.00 | 0.00 | 0.00 | 40 | 1010.5 |
| 20260504213551 | 82 | 41 | 5.2 | 13.0 | 0.00 | 0.00 | 0.00 | 39 | 1010.4 |
| 20260504213101 | 82 | 338 | 5.2 | 13.0 | 0.00 | 0.00 | 0.00 | 40 | 1010.5 |
| 20260504212550 | 82 | 88 | 3.5 | 15.6 | 0.00 | 0.00 | 0.00 | 39 | 1010.6 |
| 20260504212052 | 82 | 80 | 3.5 | 15.6 | 0.00 | 0.00 | 0.00 | 39 | 1010.5 |
| 20260504211600 | 82 | 240 | 5.2 | 15.6 | 0.00 | 0.00 | 0.00 | 38 | 1010.6 |
| 20260504211053 | 82 | 346 | 5.2 | 11.3 | 0.00 | 0.00 | 0.00 | 39 | 1010.7 |
| 20260504210552 | 82 | 81 | 4.3 | 13.0 | 0.00 | 0.00 | 0.00 | 39 | 1010.8 |
| 20260504205551 | 82 | 120 | 4.3 | 10.4 | 0.00 | 0.00 | 0.00 | 40 | 1010.8 |
| 20260504205052 | 82 | 311 | 3.5 | 10.4 | 0.00 | 0.00 | 0.00 | 40 | 1010.7 |
| 20260504204556 | 82 | 357 | 4.3 | 13.0 | 0.00 | 0.00 | 0.00 | 40 | 1010.9 |
| 20260504204048 | 82 | 41 | 4.3 | 18.2 | 0.00 | 0.00 | 0.00 | 40 | 1010.9 |
| 20260504203552 | 82 | 345 | 6.1 | 18.2 | 0.00 | 0.00 | 0.00 | 39 | 1011.1 |
| 20260504203059 | 82 | 20 | 5.2 | 11.3 | 0.00 | 0.00 | 0.00 | 38 | 1011.2 |
| 20260504202552 | 82 | 43 | 4.3 | 12.2 | 0.00 | 0.00 | 0.00 | 42 | 1011.1 |
| 20260504202055 | 82 | 347 | 3.5 | 12.2 | 0.00 | 0.00 | 0.00 | 42 | 1011.2 |
| 20260504201552 | 82 | 301 | 4.3 | 11.3 | 0.00 | 0.00 | 0.00 | 40 | 1011.3 |
| 20260504201052 | 82 | 27 | 4.3 | 13.0 | 0.00 | 0.00 | 0.00 | 40 | 1011.2 |
| 20260504200552 | 82 | 352 | 6.1 | 13.0 | 0.00 | 0.00 | 0.00 | 40 | 1011.6 |
| 20260504195551 | 82 | 50 | 3.5 | 11.3 | 0.00 | 0.00 | 0.00 | 40 | 1011.6 |
| 20260504195052 | 82 | 68 | 4.3 | 12.2 | 0.00 | 0.00 | 0.00 | 41 | 1011.6 |
| 20260504194552 | 82 | 275 | 5.2 | 12.2 | 0.00 | 0.00 | 0.00 | 41 | 1011.6 |
| 20260504194053 | 82 | 89 | 4.3 | 10.4 | 0.00 | 0.00 | 0.00 | 41 | 1011.8 |
| 20260504193552 | 82 | 340 | 3.5 | 11.3 | 0.00 | 0.00 | 0.00 | 42 | 1012.0 |
| 20260504193052 | 82 | 298 | 5.2 | 11.3 | 0.00 | 0.00 | 0.00 | 41 | 1012.1 |
| 20260504192552 | 82 | 71 | 4.3 | 10.4 | 0.00 | 0.00 | 0.00 | 43 | 1012.2 |
| 20260504192052 | 82 | 346 | 3.5 | 13.0 | 0.00 | 0.00 | 0.00 | 44 | 1012.3 |
| 20260504191606 | 82 | 324 | 5.2 | 13.0 | 0.00 | 0.00 | 0.00 | 41 | 1012.3 |
| 20260504191052 | 81 | 88 | 5.2 | 17.4 | 0.00 | 0.00 | 0.00 | 42 | 1012.3 |
| 20260504190554 | 82 | 78 | 5.2 | 17.4 | 0.00 | 0.00 | 0.00 | 41 | 1012.4 |
| 20260504190051 | 82 | 85 | 5.2 | 17.4 | 0.00 | 0.00 | 0.00 | 40 | 1012.6 |
| 20260504185552 | 82 | 55 | 4.3 | 14.8 | 0.00 | 0.00 | 0.00 | 41 | 1012.5 |
| 20260504185052 | 82 | 76 | 5.2 | 10.4 | 0.00 | 0.00 | 0.00 | 42 | 1012.6 |
| 20260504184555 | 82 | 338 | 4.3 | 9.6 | 0.00 | 0.00 | 0.00 | 41 | 1012.6 |
| 20260504184052 | 82 | 98 | 2.6 | 11.3 | 0.00 | 0.00 | 0.00 | 44 | 1012.6 |
| 20260504183552 | 82 | 83 | 3.5 | 12.2 | 0.00 | 0.00 | 0.00 | 43 | 1012.6 |
| 20260504183054 | 81 | 48 | 5.2 | 12.2 | 0.00 | 0.00 | 0.00 | 43 | 1012.8 |
| 20260504182552 | 81 | 286 | 6.1 | 12.2 | 0.00 | 0.00 | 0.00 | 41 | 1012.8 |
| 20260504182051 | 81 | 323 | 4.3 | 12.2 | 0.00 | 0.00 | 0.00 | 45 | 1012.8 |
| 20260504181602 | 81 | 109 | 6.1 | 13.9 | 0.00 | 0.00 | 0.00 | 42 | 1012.8 |
| 20260504181052 | 82 | 64 | 4.3 | 13.9 | 0.00 | 0.00 | 0.00 | 42 | 1012.9 |
| 20260504180553 | 82 | 77 | 5.2 | 11.3 | 0.00 | 0.00 | 0.00 | 44 | 1013.0 |
| 20260504180058 | 81 | 76 | 3.5 | 12.2 | 0.00 | 0.00 | 0.00 | 45 | 1012.9 |
| 20260504175551 | 81 | 92 | 2.6 | 12.2 | 0.00 | 0.00 | 0.00 | 47 | 1012.9 |
| 20260504175051 | 81 | 85 | 4.3 | 11.3 | 0.00 | 0.00 | 0.00 | 45 | 1013.1 |
| 20260504174556 | 81 | 332 | 2.6 | 11.3 | 0.00 | 0.00 | 0.00 | 45 | 1013.1 |
| 20260504174051 | 81 | 313 | 3.5 | 11.3 | 0.00 | 0.00 | 0.00 | 45 | 1013.2 |
| 20260504173552 | 80 | 26 | 5.2 | 10.4 | 0.00 | 0.00 | 0.00 | 44 | 1013.3 |
| 20260504173055 | 80 | 27 | 4.3 | 9.6 | 0.00 | 0.00 | 0.00 | 44 | 1013.4 |
| 20260504172552 | 80 | 41 | 5.2 | 14.8 | 0.00 | 0.00 | 0.00 | 46 | 1013.5 |
| 20260504172049 | 80 | 57 | 5.2 | 14.8 | 0.00 | 0.00 | 0.00 | 45 | 1013.6 |
| 20260504171557 | 81 | 308 | 3.5 | 7.0 | 0.00 | 0.00 | 0.00 | 44 | 1013.6 |
| 20260504171052 | 81 | 331 | 2.6 | 7.0 | 0.00 | 0.00 | 0.00 | 48 | 1013.6 |
| 20260504170552 | 80 | 34 | 1.7 | 12.2 | 0.00 | 0.00 | 0.00 | 49 | 1013.8 |
| 20260504160104 | 78 | 32 | 4.3 | 10.4 | 0.00 | 0.00 | 0.00 | 49 | 1014.8 |
| 20260504151048 | 75 | 99 | 2.6 | 7.8 | 0.00 | 0.00 | 0.00 | 56 | 1014.8 |
| 20260504150552 | 75 | 302 | 2.6 | 12.2 | 0.00 | 0.00 | 0.00 | 59 | 1014.9 |
| 20260504141050 | 72 | 97 | 2.6 | 6.1 | 0.00 | 0.00 | 0.00 | 62 | 1015.3 |
| 20260504140548 | 71 | 115 | 1.7 | 6.1 | 0.00 | 0.00 | 0.00 | 64 | 1015.1 |